Time,TemperatureF,DewpointF,PressureIn,WindDirection,WindDirectionDegrees,WindSpeedMPH,WindSpeedGustMPH,Humidity,HourlyPrecipIn,Conditions,Clouds,dailyrainin,SolarRadiationWatts/m^2,SoftwareType,DateUTC
2013-08-09 00:01:00,64.0,42.0,-100.00,East,91,3.0,6.0,45,0.00,,,0.02,0.000000,,2013-08-09 06:01:00,
2013-08-09 00:11:00,64.0,42.0,-100.00,East,91,3.0,6.0,45,0.00,,,0.02,0.000000,,2013-08-09 06:11:00,
2013-08-09 00:21:00,64.0,42.0,-100.00,East,91,3.0,6.0,45,0.00,,,0.02,0.000000,,2013-08-09 06:21:00,
2013-08-09 00:32:00,64.0,42.0,-100.00,East,91,3.0,6.0,45,0.00,,,0.02,0.000000,,2013-08-09 06:32:00,
2013-08-09 01:01:00,62.0,42.0,-100.00,East,96,4.0,6.0,48,0.00,,,0.02,0.000000,,2013-08-09 07:01:00,
2013-08-09 01:12:00,62.0,42.0,-100.00,East,96,4.0,6.0,48,0.00,,,0.02,0.000000,,2013-08-09 07:12:00,
2013-08-09 01:21:00,62.0,42.0,-100.00,East,96,4.0,6.0,48,0.00,,,0.02,0.000000,,2013-08-09 07:21:00,
2013-08-09 01:33:00,62.0,42.0,-100.00,East,96,4.0,6.0,48,0.00,,,0.02,0.000000,,2013-08-09 07:33:00,
2013-08-09 02:02:00,60.0,41.0,-100.00,East,94,1.0,7.0,49,0.00,,,0.02,0.000000,,2013-08-09 08:02:00,
2013-08-09 02:12:00,60.0,41.0,-100.00,East,94,1.0,7.0,49,0.00,,,0.02,0.000000,,2013-08-09 08:12:00,
2013-08-09 02:21:00,60.0,41.0,-100.00,East,94,1.0,7.0,49,0.00,,,0.02,0.000000,,2013-08-09 08:21:00,
2013-08-09 02:32:00,60.0,41.0,-100.00,East,94,1.0,7.0,49,0.00,,,0.02,0.000000,,2013-08-09 08:32:00,
2013-08-09 03:02:00,58.0,41.0,-100.00,East,88,3.0,7.0,54,0.00,,,0.02,0.000000,,2013-08-09 09:02:00,
2013-08-09 03:12:00,58.0,41.0,-100.00,East,88,3.0,7.0,54,0.00,,,0.02,0.000000,,2013-08-09 09:12:00,
2013-08-09 03:22:00,58.0,41.0,-100.00,East,88,3.0,7.0,54,0.00,,,0.02,0.000000,,2013-08-09 09:22:00,
2013-08-09 03:32:00,58.0,41.0,-100.00,East,88,3.0,7.0,54,0.00,,,0.02,0.000000,,2013-08-09 09:32:00,
2013-08-09 04:12:00,58.0,42.0,-100.00,East,80,5.0,11.0,55,0.00,,,0.02,0.000000,,2013-08-09 10:12:00,
2013-08-09 04:22:00,58.0,42.0,-100.00,East,80,5.0,11.0,55,0.00,,,0.02,0.000000,,2013-08-09 10:22:00,
2013-08-09 04:32:00,58.0,42.0,-100.00,East,80,5.0,11.0,55,0.00,,,0.02,0.000000,,2013-08-09 10:32:00,
2013-08-09 05:01:00,57.0,40.0,-100.00,NNW,331,3.0,5.0,53,0.00,,,0.02,0.000000,,2013-08-09 11:01:00,
2013-08-09 05:11:00,57.0,40.0,-100.00,NNW,331,3.0,5.0,53,0.00,,,0.02,0.000000,,2013-08-09 11:11:00,
2013-08-09 05:22:00,57.0,40.0,-100.00,NNW,331,3.0,5.0,53,0.00,,,0.02,0.000000,,2013-08-09 11:22:00,
2013-08-09 05:33:00,57.0,40.0,-100.00,NNW,331,3.0,5.0,53,0.00,,,0.02,0.000000,,2013-08-09 11:33:00,
2013-08-09 06:12:00,55.0,41.0,-100.00,ESE,102,2.0,8.0,60,0.00,,,0.02,0.000000,,2013-08-09 12:12:00,
2013-08-09 06:22:00,55.0,41.0,-100.00,ESE,102,2.0,8.0,60,0.00,,,0.02,0.000000,,2013-08-09 12:22:00,
2013-08-09 06:32:00,55.0,41.0,-100.00,ESE,102,2.0,8.0,60,0.00,,,0.02,0.000000,,2013-08-09 12:32:00,
2013-08-09 07:01:00,55.0,42.0,-100.00,NNE,24,1.0,6.0,61,0.00,,,0.02,0.000000,,2013-08-09 13:01:00,
2013-08-09 07:12:00,55.0,42.0,-100.00,NNE,24,1.0,6.0,61,0.00,,,0.02,0.000000,,2013-08-09 13:12:00,
2013-08-09 07:23:00,55.0,42.0,-100.00,NNE,24,1.0,6.0,61,0.00,,,0.02,0.000000,,2013-08-09 13:23:00,
2013-08-09 07:32:00,55.0,42.0,-100.00,NNE,24,1.0,6.0,61,0.00,,,0.02,0.000000,,2013-08-09 13:32:00,
2013-08-09 08:02:00,55.0,42.0,-100.00,North,349,1.0,6.0,61,0.00,,,-99.99,32.000000,,2013-08-09 14:02:00,
2013-08-09 08:11:00,55.0,42.0,-100.00,North,349,1.0,6.0,61,0.00,,,-99.99,32.000000,,2013-08-09 14:11:00,
2013-08-09 08:22:00,55.0,42.0,-100.00,North,349,1.0,6.0,61,0.00,,,-99.99,32.000000,,2013-08-09 14:22:00,
2013-08-09 08:33:00,55.0,42.0,-100.00,North,349,1.0,6.0,61,0.00,,,-99.99,32.000000,,2013-08-09 14:33:00,
2013-08-09 09:11:00,58.0,45.0,-100.00,East,87,3.0,7.0,62,0.00,,,0.02,158.000000,,2013-08-09 15:11:00,
2013-08-09 09:22:00,58.0,45.0,-100.00,East,87,3.0,7.0,62,0.00,,,0.02,158.000000,,2013-08-09 15:22:00,
2013-08-09 09:32:00,58.0,45.0,-100.00,East,87,3.0,7.0,62,0.00,,,0.02,158.000000,,2013-08-09 15:32:00,
2013-08-09 10:01:00,61.0,46.0,-100.00,SE,133,0.0,4.0,58,0.00,,,0.02,277.000000,,2013-08-09 16:01:00,
2013-08-09 10:11:00,61.0,46.0,-100.00,SE,133,0.0,4.0,58,0.00,,,0.02,277.000000,,2013-08-09 16:11:00,
2013-08-09 10:22:00,61.0,46.0,-100.00,SE,133,0.0,4.0,58,0.00,,,0.02,277.000000,,2013-08-09 16:22:00,
2013-08-09 10:32:00,61.0,46.0,-100.00,SE,133,0.0,4.0,58,0.00,,,0.02,277.000000,,2013-08-09 16:32:00,
2013-08-09 11:02:00,68.0,48.0,-100.00,SE,130,2.0,6.0,48,0.00,,,-99.99,462.000000,,2013-08-09 17:02:00,
2013-08-09 11:11:00,68.0,48.0,-100.00,SE,130,2.0,6.0,48,0.00,,,-99.99,462.000000,,2013-08-09 17:11:00,
2013-08-09 11:22:00,68.0,48.0,-100.00,SE,130,2.0,6.0,48,0.00,,,-99.99,462.000000,,2013-08-09 17:22:00,
2013-08-09 11:32:00,68.0,48.0,-100.00,SE,130,2.0,6.0,48,0.00,,,-99.99,462.000000,,2013-08-09 17:32:00,
2013-08-09 12:01:00,73.0,46.0,-100.00,SW,225,2.0,5.0,38,0.00,,,0.02,622.000000,,2013-08-09 18:01:00,
2013-08-09 12:11:00,73.0,46.0,-100.00,SW,225,2.0,5.0,38,0.00,,,0.02,622.000000,,2013-08-09 18:11:00,
2013-08-09 12:22:00,73.0,46.0,-100.00,SW,225,2.0,5.0,38,0.00,,,0.02,622.000000,,2013-08-09 18:22:00,
2013-08-09 12:32:00,73.0,46.0,-100.00,SW,225,2.0,5.0,38,0.00,,,0.02,622.000000,,2013-08-09 18:32:00,
2013-08-09 13:02:00,81.0,44.0,-100.00,NW,325,2.0,7.0,27,0.00,,,0.02,790.000000,,2013-08-09 19:02:00,
2013-08-09 13:11:00,81.0,44.0,-100.00,NW,325,2.0,7.0,27,0.00,,,0.02,790.000000,,2013-08-09 19:11:00,
2013-08-09 13:22:00,81.0,44.0,-100.00,NW,325,2.0,7.0,27,0.00,,,0.02,790.000000,,2013-08-09 19:22:00,
2013-08-09 13:32:00,81.0,44.0,-100.00,NW,325,2.0,7.0,27,0.00,,,0.02,790.000000,,2013-08-09 19:32:00,
2013-08-09 14:11:00,87.0,41.0,-100.00,SE,140,3.0,9.0,20,0.00,,,0.02,864.000000,,2013-08-09 20:11:00,
2013-08-09 14:22:00,87.0,41.0,-100.00,SE,140,3.0,9.0,20,0.00,,,0.02,864.000000,,2013-08-09 20:22:00,
2013-08-09 14:32:00,87.0,41.0,-100.00,SE,140,3.0,9.0,20,0.00,,,0.02,864.000000,,2013-08-09 20:32:00,
2013-08-09 15:12:00,82.0,39.0,-100.00,West,276,9.0,15.0,22,0.00,,,0.02,703.000000,,2013-08-09 21:12:00,
2013-08-09 15:22:00,82.0,39.0,-100.00,West,276,9.0,15.0,22,0.00,,,0.02,703.000000,,2013-08-09 21:22:00,
2013-08-09 15:32:00,82.0,39.0,-100.00,West,276,9.0,15.0,22,0.00,,,0.02,703.000000,,2013-08-09 21:32:00,
2013-08-09 20:32:00,62.0,51.0,-100.00,NW,323,7.0,12.0,66,0.00,,,0.01,100.000000,,2013-08-10 02:32:00,
2013-08-09 21:01:00,64.0,47.0,-100.00,NNW,345,6.0,15.0,53,0.00,,,0.01,60.000000,,2013-08-10 03:01:00,
2013-08-09 21:11:00,64.0,47.0,-100.00,NNW,345,6.0,15.0,53,0.00,,,0.01,60.000000,,2013-08-10 03:11:00,
2013-08-09 21:21:00,64.0,47.0,-100.00,NNW,345,6.0,15.0,53,0.00,,,0.01,60.000000,,2013-08-10 03:21:00,
2013-08-09 21:32:00,64.0,47.0,-100.00,NNW,345,6.0,15.0,53,0.00,,,0.01,60.000000,,2013-08-10 03:32:00,
2013-08-09 22:01:00,63.0,46.0,-100.00,NNW,337,6.0,11.0,53,0.00,,,0.01,7.000000,,2013-08-10 04:01:00,
2013-08-09 22:12:00,63.0,46.0,-100.00,NNW,337,6.0,11.0,53,0.00,,,0.01,7.000000,,2013-08-10 04:12:00,
2013-08-09 22:22:00,63.0,46.0,-100.00,NNW,337,6.0,11.0,53,0.00,,,0.01,7.000000,,2013-08-10 04:22:00,
2013-08-09 22:32:00,63.0,46.0,-100.00,NNW,337,6.0,11.0,53,0.00,,,0.01,7.000000,,2013-08-10 04:32:00,
2013-08-09 23:02:00,62.0,46.0,-100.00,NNW,343,5.0,9.0,56,0.00,,,0.01,0.000000,,2013-08-10 05:02:00,
2013-08-09 23:11:00,62.0,46.0,-100.00,NNW,343,5.0,9.0,56,0.00,,,0.01,0.000000,,2013-08-10 05:11:00,
2013-08-09 23:21:00,62.0,46.0,-100.00,NNW,343,5.0,9.0,56,0.00,,,0.01,0.000000,,2013-08-10 05:21:00,
2013-08-09 23:32:00,62.0,46.0,-100.00,NNW,343,5.0,9.0,56,0.00,,,0.01,0.000000,,2013-08-10 05:32:00,